This is the latest recevied weather packets stored in our database for station/object KQ4OSL. If no packets are shown the sender has not sent any weather packets the latest 10 day(s).
| Time | Temp. | Humidity | Pressure | Rain* | Wind** | Luminosity | Snow |
|---|---|---|---|---|---|---|---|
| 1777503902 | 23.89° C | 84% | 1012.6 hPa | 0 mm | - | 27 W/m² | - |
| 1777503598 | 23.89° C | 84% | 1012.5 hPa | 0 mm | - | 48 W/m² | - |
| 1777503296 | 23.89° C | 84% | 1012.4 hPa | 0 mm | - | 36 W/m² | - |
| 1777502992 | 24.44° C | 81% | 1012.3 hPa | 0 mm | - | 51 W/m² | - |
| 1777502690 | 24.44° C | 81% | 1012.6 hPa | 0 mm | - | 56 W/m² | - |
| 1777502386 | 24.44° C | 81% | 1012.9 hPa | 0 mm | - | 52 W/m² | - |
| 1777502083 | 24.44° C | 81% | 1013 hPa | 0 mm | - | 55 W/m² | - |
| 1777501780 | 24.44° C | 79% | 1013.1 hPa | 0 mm | - | 71 W/m² | - |
| 1777501478 | 24.44° C | 79% | 1013.1 hPa | 0 mm | - | 70 W/m² | - |
| 1777501174 | 24.44° C | 80% | 1012.8 hPa | 0 mm | - | 86 W/m² | - |
| 1777500872 | 25° C | 80% | 1012.7 hPa | 0 mm | - | 89 W/m² | - |
| 1777500569 | 25° C | 79% | 1013 hPa | 0 mm | - | 95 W/m² | - |
| 1777500266 | 25° C | 79% | 1012.9 hPa | 0 mm | - | 85 W/m² | - |
| 1777499962 | 25.56° C | 76% | 1012.9 hPa | 0 mm | - | 106 W/m² | - |
| 1777499659 | 25° C | 78% | 1013 hPa | 0 mm | - | 157 W/m² | - |
| 1777499356 | 25° C | 79% | 1012.9 hPa | 0 mm | - | 131 W/m² | - |
| 1777499055 | 25° C | 77% | 1012.9 hPa | 0 mm | - | 131 W/m² | - |
| 1777498750 | 25° C | 77% | 1012.9 hPa | 0 mm | - | 139 W/m² | - |
| 1777498447 | 25.56° C | 77% | 1012.8 hPa | 0 mm | - | 144 W/m² | - |
| 1777498144 | 25.56° C | 76% | 1012.8 hPa | 0 mm | - | 175 W/m² | - |
| 1777497841 | 25° C | 77% | 1013 hPa | 0 mm | - | 182 W/m² | - |
| 1777497537 | 25.56° C | 77% | 1012.9 hPa | 0 mm | - | 143 W/m² | - |
| 1777497233 | 25.56° C | 75% | 1012.8 hPa | 0 mm | - | 163 W/m² | - |
| 1777496930 | 25.56° C | 75% | 1013 hPa | 0 mm | - | 148 W/m² | - |
| 1777496627 | 25.56° C | 75% | 1013 hPa | 0 mm | - | 130 W/m² | - |
* Rain latest hour (hover to see other rain measurements)
** Current wind speed in m/s (hover to see current wind gust speed)